User: anonymous   Login
Location: Stonelick Lake State Park
(39.2170°N, 84.0850°W)
Time: 16:34:04
(UTC-05:00)
Language:

Abrixas rocket - Orbit

View from above orbital plane
View from above orbital plane
View from above satellite
View from above satellite

Ground track
Ground track

The orbit data is extracted from the following two-line orbital elements,

1 25723U 99022C   14354.24211536  .00016739  00000-0  48657-3 0  8282
2 25723 048.4235 281.1596 0014580 019.8257 133.7846 15.35374680865697
Epoch (UTC): 20 December 2014 05:48:38
Eccentricity: 0.0014580
inclination: 48.4235°
perigee height: 450 km
apogee height: 470 km
right ascension of ascending node: 281.1596°
argument of perigee: 19.8257°
revolutions per day: 15.35374680
mean anomaly at epoch: 133.7846°
orbit number at epoch: 86569

The dashed part of the orbit path shows where the satellite is in the earth's shadow,  

DLR